Glenwood, MN

2:38 AM CDT on March 30, 2017 (GMT -0500)
Glenwood Municipal

Weather History for KGHW - October, 2014

Change the Weather History Date:

Thursday, October 2, 2014

  Actual Average Record
Temperature  
Mean Temperature 52 °F -  
Max Temperature 60 °F 65 °F 90 °F (1953)
Min Temperature 44 °F 38 °F 20 °F (1993)
Degree Days  
Heating Degree Days 13    
Growing Degree Days 2 (Base 50)    
Moisture  
Dew Point 49 °F    
Average Humidity 89    
Maximum Humidity 100    
Minimum Humidity 63    
Precipitation  
Precipitation 0.06 in - - ()
Sea Level Pressure  
Sea Level Pressure 29.83 in    
Wind  
Wind Speed 5 mph (West)    
Max Wind Speed 23 mph    
Max Gust Speed 30 mph    
Visibility 10 miles    
Events      
Averages and records for this station are not official NWS values.
T = Trace of Precipitation, MM = Missing Value Source: NWS Daily Summary

Daily Weather History Graph

Daily Weather History Graph

Search for Another Location

Airport or City:

Trip Planner

Search our weather history database for the weather conditions in past years. The results will help you decide how hot, cold, wet, or windy it might be!

Date:

Astronomy

Oct. 02, 2014 Rise Set
Actual Time 7:20 AM CDT 6:59 PM CDT
Civil Twilight 6:51 AM CDT 7:29 PM CDT
Nautical Twilight 6:16 AM CDT 8:03 PM CDT
Astronomical Twilight 5:41 AM CDT 8:38 PM CDT
Moon 3:22 PM CDT (10/2) 12:22 AM CDT (10/2)
Length of Visible Light 12h 37m
Length of Day
11h 38m
First Quarter, 60% of the Moon is Illuminated
Oct 2
First Quarter
Oct 8
Full
Oct 15
Last Quarter
Oct 23
New
Oct 30
First Quarter

Hourly Weather History & Observations

Time (CDT) Temp. Windchill Dew Point Humidity Pressure Visibility Wind Dir Wind Speed Gust Speed Precip Events Conditions
12:13 AM 51.8 °F - 48.2 °F 88% 29.83 in 10.0 mi Calm Calm - N/A   Clear
12:33 AM 51.8 °F - 48.2 °F 88% 29.83 in 10.0 mi West 3.5 mph - N/A   Clear
12:53 AM 51.8 °F - 48.2 °F 88% 29.84 in 10.0 mi WSW 3.5 mph - N/A   Clear
1:13 AM 51.8 °F - 48.2 °F 88% 29.84 in 10.0 mi West 5.8 mph - N/A   Clear
1:33 AM 50.0 °F - 46.4 °F 87% 29.85 in 10.0 mi West 5.8 mph - N/A   Clear
1:53 AM 51.8 °F - 48.2 °F 88% 29.85 in 10.0 mi WSW 4.6 mph - N/A   Clear
2:13 AM 57.2 °F - 55.4 °F 94% 29.77 in 10.0 mi SSE 16.1 mph 24.2 mph N/A   Overcast
2:33 AM 50.0 °F - 48.2 °F 94% 29.85 in 10.0 mi West 4.6 mph - N/A   Clear
2:53 AM 48.2 °F - 46.4 °F 93% 29.84 in 10.0 mi West 3.5 mph - N/A   Clear
3:13 AM 44.6 °F - 44.6 °F 100% 29.83 in 10.0 mi Calm Calm - N/A   Clear
3:33 AM 46.4 °F - 44.6 °F 93% 29.84 in 10.0 mi Calm Calm - N/A   Clear
3:53 AM 44.6 °F 41.4 °F 44.6 °F 100% 29.84 in 10.0 mi West 5.8 mph - N/A   Clear
4:13 AM 46.4 °F 43.5 °F 46.4 °F 100% 29.85 in 10.0 mi West 5.8 mph - N/A   Clear
4:33 AM 48.2 °F - 46.4 °F 93% 29.85 in 10.0 mi West 3.5 mph - N/A   Clear
4:53 AM 46.4 °F 43.5 °F 46.4 °F 100% 29.85 in 10.0 mi WNW 5.8 mph - N/A   Clear
5:13 AM 46.4 °F 43.5 °F 44.6 °F 93% 29.85 in 10.0 mi WNW 5.8 mph - N/A   Clear
5:33 AM 46.4 °F 44.3 °F 46.4 °F 100% 29.85 in 10.0 mi WNW 4.6 mph - N/A   Clear
5:53 AM 46.4 °F - 46.4 °F 100% 29.85 in 10.0 mi Calm Calm - N/A   Clear
6:13 AM 46.4 °F 45.2 °F 46.4 °F 100% 29.85 in 10.0 mi NW 3.5 mph - N/A   Clear
6:33 AM 53.6 °F - 53.6 °F 100% 29.75 in 1.5 mi SE 10.4 mph - N/A   Light Drizzle
6:53 AM 46.4 °F - 46.4 °F 100% 29.85 in 10.0 mi Calm Calm - N/A   Clear
7:13 AM 53.6 °F - 53.6 °F 100% 29.76 in 2.0 mi SSE 10.4 mph - N/A   Light Drizzle
7:32 AM 53.6 °F - 53.6 °F 100% 29.76 in 1.8 mi SE 8.1 mph - N/A   Drizzle
7:33 AM 46.4 °F - 46.4 °F 100% 29.86 in 2.0 mi Calm Calm - N/A   Clear
7:52 AM 46.4 °F 45.2 °F 46.4 °F 100% 29.86 in 7.0 mi WNW 3.5 mph - N/A   Clear
8:13 AM 48.2 °F - 48.2 °F 100% 29.86 in 10.0 mi WNW 4.6 mph - N/A   Clear
8:33 AM 50.0 °F - 48.2 °F 94% 29.86 in 10.0 mi WNW 5.8 mph - N/A   Clear
8:53 AM 51.8 °F - 50.0 °F 94% 29.86 in 10.0 mi WNW 5.8 mph - N/A   Clear
9:13 AM 51.8 °F - 48.2 °F 88% 29.86 in 10.0 mi NW 5.8 mph - N/A   Clear
9:32 AM 51.8 °F - 50.0 °F 94% 29.86 in 10.0 mi WNW 9.2 mph - N/A   Clear
9:53 AM 51.8 °F - 50.0 °F 94% 29.86 in 10.0 mi WNW 6.9 mph - N/A   Clear
10:13 AM 51.8 °F - 50.0 °F 94% 29.87 in 10.0 mi WNW 6.9 mph - N/A   Clear
10:33 AM 51.8 °F - 50.0 °F 94% 29.88 in 10.0 mi West 4.6 mph - N/A   Scattered Clouds
10:53 AM 51.8 °F - 50.0 °F 94% 29.88 in 10.0 mi West 4.6 mph - N/A   Scattered Clouds
11:12 AM 51.8 °F - 50.0 °F 94% 29.88 in 10.0 mi West 4.6 mph - N/A   Scattered Clouds
11:33 AM 51.8 °F - 50.0 °F 94% 29.89 in 10.0 mi West 3.5 mph - 0.01 in   Scattered Clouds
11:53 AM 51.8 °F - 50.0 °F 94% 29.89 in 10.0 mi Calm Calm - 0.03 in   Mostly Cloudy
12:13 PM 53.6 °F - 51.8 °F 94% 29.88 in 10.0 mi Calm Calm - 0.01 in   Clear
12:33 PM 53.6 °F - 51.8 °F 94% 29.87 in 10.0 mi Calm Calm - 0.01 in   Clear
12:53 PM 53.6 °F - 50.0 °F 88% 29.86 in 10.0 mi Calm Calm - 0.01 in   Scattered Clouds
1:13 PM 55.4 °F - 51.8 °F 88% 29.85 in 10.0 mi Calm Calm - N/A   Clear
1:33 PM 55.4 °F - 51.8 °F 88% 29.85 in 10.0 mi SSW 3.5 mph - 0.01 in   Clear
1:53 PM 55.4 °F - 51.8 °F 88% 29.84 in 10.0 mi WSW 3.5 mph - 0.01 in   Clear
2:13 PM 55.4 °F - 51.8 °F 88% 29.83 in 10.0 mi WSW 3.5 mph - N/A   Clear
2:33 PM 55.4 °F - 51.8 °F 88% 29.82 in 10.0 mi West 6.9 mph - N/A   Clear
2:53 PM 53.6 °F - 51.8 °F 94% 29.82 in 10.0 mi West 4.6 mph - N/A   Clear
3:13 PM 53.6 °F - 51.8 °F 94% 29.82 in 10.0 mi WSW 4.6 mph - N/A   Clear
3:32 PM 55.4 °F - 51.8 °F 88% 29.82 in 10.0 mi West 4.6 mph - N/A   Clear
3:53 PM 57.2 °F - 51.8 °F 82% 29.81 in 10.0 mi Calm Calm - 0.01 in   Clear
4:13 PM 57.2 °F - 51.8 °F 82% 29.80 in 10.0 mi SW 5.8 mph - N/A   Clear
4:33 PM 60.8 °F - 48.2 °F 63% 29.79 in 10.0 mi SW 3.5 mph - N/A   Clear
4:53 PM 59.0 °F - 48.2 °F 67% 29.79 in 10.0 mi Calm Calm - N/A   Clear
5:13 PM 60.8 °F - 51.8 °F 72% 29.79 in 10.0 mi West 5.8 mph - N/A   Clear
5:33 PM 59.0 °F - 51.8 °F 77% 29.79 in 10.0 mi WSW 5.8 mph - N/A   Clear
5:53 PM 59.0 °F - 50.0 °F 72% 29.79 in 10.0 mi SW 4.6 mph - N/A   Clear
6:12 PM 57.2 °F - 50.0 °F 77% 29.80 in 10.0 mi SSW 3.5 mph - N/A   Clear
6:33 PM 57.2 °F - 50.0 °F 77% 29.80 in 10.0 mi Calm Calm - N/A   Clear
6:53 PM 55.4 °F - 48.2 °F 77% 29.79 in 10.0 mi Calm Calm - N/A   Clear
7:13 PM 53.6 °F - 48.2 °F 82% 29.78 in 10.0 mi Calm Calm - N/A   Clear
7:33 PM 51.8 °F - 48.2 °F 88% 29.78 in 10.0 mi Calm Calm - N/A   Clear
7:52 PM 51.8 °F - 48.2 °F 88% 29.78 in 10.0 mi SSW 4.6 mph - N/A   Clear
8:13 PM 48.2 °F - 46.4 °F 93% 29.78 in 10.0 mi SSW 5.8 mph - N/A   Clear
8:33 PM 48.2 °F - 46.4 °F 93% 29.78 in 10.0 mi South 5.8 mph - N/A   Clear
8:53 PM 48.2 °F - 46.4 °F 93% 29.79 in 10.0 mi WSW 8.1 mph - N/A   Clear
9:13 PM 53.6 °F - 48.2 °F 82% 29.79 in 10.0 mi WSW 10.4 mph - N/A   Scattered Clouds
9:33 PM 53.6 °F - 46.4 °F 77% 29.79 in 10.0 mi West 8.1 mph - N/A   Mostly Cloudy
9:53 PM 53.6 °F - 44.6 °F 72% 29.79 in 10.0 mi WNW 8.1 mph - N/A   Overcast
10:13 PM 53.6 °F - 44.6 °F 72% 29.79 in 10.0 mi West 6.9 mph - N/A   Mostly Cloudy
10:33 PM 50.0 °F - 44.6 °F 82% 29.79 in 10.0 mi West 9.2 mph - N/A   Scattered Clouds
10:53 PM 51.8 °F - 44.6 °F 76% 29.78 in 10.0 mi West 17.3 mph 23.0 mph N/A   Clear
11:13 PM 51.8 °F - 44.6 °F 76% 29.78 in 10.0 mi WNW 20.7 mph 28.8 mph N/A   Clear
11:33 PM 50.0 °F - 44.6 °F 82% 29.78 in 10.0 mi WNW 23.0 mph 29.9 mph N/A   Clear
11:52 PM 48.2 °F - 44.6 °F 87% 29.80 in 10.0 mi WNW 23.0 mph 28.8 mph N/A   Clear